This is the latest recevied weather packets stored in our database for station/object N6GPM. If no packets are shown the sender has not sent any weather packets the latest 10 day(s).
| Time | Temp. | Humidity | Pressure | Rain* | Wind** | Luminosity | Snow |
|---|---|---|---|---|---|---|---|
| 1788321710 | 21.11° C | 44% | 1018.8 hPa | 0 mm | - | 0 W/m² | - |
| 1788321408 | 21.11° C | 43% | 1018.6 hPa | 0 mm | - | 0 W/m² | - |
| 1788321104 | 21.11° C | 41% | 1018.7 hPa | 0 mm | - | 0 W/m² | - |
| 1788320812 | 21.11° C | 39% | 1018.6 hPa | 0 mm | - | 0 W/m² | - |
| 1788320497 | 21.11° C | 38% | 1018.6 hPa | 0 mm | - | 0 W/m² | - |
| 1788320196 | 21.67° C | 39% | 1018.4 hPa | 0 mm | - | 0 W/m² | - |
| 1788319891 | 21.67° C | 38% | 1018.5 hPa | 0 mm | - | 0 W/m² | - |
| 1788319589 | 21.67° C | 35% | 1018.2 hPa | 0 mm | - | 0 W/m² | - |
| 1788319284 | 21.67° C | 34% | 1018.3 hPa | 0 mm | - | 0 W/m² | - |
| 1788318979 | 22.22° C | 34% | 1018.1 hPa | 0 mm | - | 0 W/m² | - |
| 1788318675 | 22.22° C | 34% | 1018.1 hPa | 0 mm | - | 0 W/m² | - |
| 1788318370 | 22.78° C | 34% | 1018.4 hPa | 0 mm | - | 0 W/m² | - |
| 1788318069 | 22.78° C | 34% | 1018.2 hPa | 0 mm | - | 0 W/m² | - |
| 1788317763 | 22.78° C | 34% | 1018 hPa | 0 mm | - | 0 W/m² | - |
| 1788317459 | 22.78° C | 34% | 1017.9 hPa | 0 mm | - | 0 W/m² | - |
| 1788317154 | 23.33° C | 34% | 1018 hPa | 0 mm | - | 0 W/m² | - |
| 1788316854 | 23.33° C | 34% | 1017.7 hPa | 0 mm | - | 0 W/m² | - |
| 1788316550 | 23.89° C | 34% | 1017.7 hPa | 0 mm | - | 0 W/m² | - |
| 1788316245 | 23.89° C | 33% | 1017.5 hPa | 0 mm | - | 0 W/m² | - |
| 1788315944 | 24.44° C | 33% | 1017.7 hPa | 0 mm | - | 1 W/m² | - |
| 1788315635 | 24.44° C | 32% | 1017.8 hPa | 0 mm | - | 3 W/m² | - |
| 1788315331 | 24.44° C | 31% | 1017.7 hPa | 0 mm | - | 5 W/m² | - |
| 1788315031 | 25° C | 31% | 1017.7 hPa | 0 mm | - | 10 W/m² | - |
| 1788314726 | 25° C | 31% | 1017.4 hPa | 0 mm | - | 13 W/m² | - |
| 1788314422 | 25.56° C | 30% | 1017.7 hPa | 0 mm | - | 17 W/m² | - |
* Rain latest hour (hover to see other rain measurements)
** Current wind speed in m/s (hover to see current wind gust speed)